Lincolnton, NC

1:48 PM EDT on April 21, 2018 (GMT -0400)
Lincolnton-Lincoln County Regional

Weather History for KIPJ - December, 2012

Change the Weather History Date:

Tuesday, December 4, 2012

  Actual Average (KCLT) Record (KCLT)
Temperature  
Mean Temperature 56 °F -  
Max Temperature 71 °F 55 °F 76 °F (1956)
Min Temperature 41 °F 34 °F 18 °F (2000)
Degree Days  
Heating Degree Days 9    
Growing Degree Days 6 (Base 50)    
Moisture  
Dew Point 46 °F    
Average Humidity 70    
Maximum Humidity 100    
Minimum Humidity 35    
Precipitation  
Precipitation 0.00 in - - ()
Sea Level Pressure  
Sea Level Pressure 30.25 in    
Wind  
Wind Speed 2 mph (SW)    
Max Wind Speed 13 mph    
Max Gust Speed 20 mph    
Visibility 10 miles    
Events      
Averages and records for this station are not official NWS values.
T = Trace of Precipitation, MM = Missing Value Source: NWS Daily Summary

Daily Weather History Graph

Daily Weather History Graph

Search for Another Location

Airport or City:

Astronomy

Dec. 04, 2012 Rise Set
Actual Time 7:18 AM EST 5:11 PM EST
Civil Twilight 6:50 AM EST 5:39 PM EST
Nautical Twilight 6:18 AM EST 6:11 PM EST
Astronomical Twilight 5:47 AM EST 6:42 PM EST
Moon 10:49 PM EST (12/4) 11:19 AM EST (12/4)
Length of Visible Light 10h 49m
Length of Day
9h 53m
Waning Gibbous, 69% of the Moon is Illuminated
Dec 4
Waning Gibbous
Dec 6
Last Quarter
Dec 13
New
Dec 20
First Quarter
Dec 28
Full

Hourly Weather History & Observations

Time (EST) Temp. Dew Point Humidity Pressure Visibility Wind Dir Wind Speed Gust Speed Precip Events Conditions
12:15 AM 44.6 °F 42.8 °F 93% 30.27 in 10.0 mi Calm Calm - N/A   Clear
12:35 AM 42.8 °F 41.0 °F 93% 30.27 in 10.0 mi Calm Calm - N/A   Clear
12:55 AM 42.8 °F 42.8 °F 100% 30.27 in 10.0 mi Calm Calm - N/A   Clear
1:15 AM 42.8 °F 41.0 °F 93% 30.26 in 10.0 mi Calm Calm - N/A   Clear
1:35 AM 42.8 °F 41.0 °F 93% 30.27 in 10.0 mi Calm Calm - N/A   Clear
1:55 AM 42.8 °F 41.0 °F 93% 30.27 in 10.0 mi Calm Calm - N/A   Clear
2:15 AM 41.0 °F 41.0 °F 100% 30.28 in 10.0 mi Calm Calm - N/A   Clear
2:35 AM 42.8 °F 41.0 °F 93% 30.28 in 10.0 mi Calm Calm - N/A   Clear
2:55 AM 41.0 °F 39.2 °F 93% 30.27 in 10.0 mi Calm Calm - N/A   Clear
3:15 AM 41.0 °F 41.0 °F 100% 30.27 in 10.0 mi Calm Calm - N/A   Mostly Cloudy
3:35 AM 41.0 °F 39.2 °F 93% 30.27 in 10.0 mi Calm Calm - N/A   Scattered Clouds
3:55 AM 41.0 °F 39.2 °F 93% 30.27 in 10.0 mi Calm Calm - N/A   Mostly Cloudy
4:15 AM 41.0 °F 41.0 °F 100% 30.27 in 10.0 mi Calm Calm - N/A   Overcast
4:35 AM 42.8 °F 42.8 °F 100% 30.27 in 10.0 mi Calm Calm - N/A   Overcast
4:55 AM 42.8 °F 42.8 °F 100% 30.27 in 10.0 mi Calm Calm - N/A   Overcast
5:15 AM 44.6 °F 42.8 °F 93% 30.27 in 10.0 mi Calm Calm - N/A   Overcast
5:35 AM 44.6 °F 42.8 °F 93% 30.27 in 10.0 mi Calm Calm - N/A   Overcast
5:55 AM 44.6 °F 44.6 °F 100% 30.27 in 10.0 mi Calm Calm - N/A   Overcast
6:15 AM 46.4 °F 44.6 °F 93% 30.28 in 10.0 mi Calm Calm - N/A   Overcast
6:35 AM 46.4 °F 44.6 °F 93% 30.28 in 10.0 mi Calm Calm - N/A   Overcast
6:55 AM 46.4 °F 44.6 °F 93% 30.29 in 10.0 mi Calm Calm - N/A   Overcast
7:15 AM 46.4 °F 44.6 °F 93% 30.30 in 10.0 mi Calm Calm - N/A   Overcast
7:35 AM 46.4 °F 44.6 °F 93% 30.30 in 10.0 mi Calm Calm - N/A   Overcast
7:55 AM 48.2 °F 44.6 °F 87% 30.31 in 10.0 mi Calm Calm - N/A   Overcast
8:15 AM 48.2 °F 46.4 °F 93% 30.31 in 10.0 mi Calm Calm - N/A   Overcast
8:35 AM 50.0 °F 46.4 °F 87% 30.31 in 10.0 mi Calm Calm - N/A   Overcast
8:55 AM 51.8 °F 48.2 °F 88% 30.31 in 10.0 mi Calm Calm - N/A   Overcast
9:15 AM 55.4 °F 50.0 °F 82% 30.31 in 10.0 mi Calm Calm - N/A   Overcast
9:35 AM 60.8 °F 50.0 °F 68% 30.32 in 10.0 mi WSW 4.6 mph - N/A   Mostly Cloudy
9:55 AM 62.6 °F 51.8 °F 68% 30.32 in 10.0 mi WSW 4.6 mph - N/A   Scattered Clouds
10:15 AM 64.4 °F 50.0 °F 59% 30.32 in 10.0 mi WSW 5.8 mph - N/A   Clear
10:35 AM 64.4 °F 50.0 °F 59% 30.32 in 10.0 mi SW 8.1 mph - N/A   Clear
10:55 AM 68.0 °F 50.0 °F 52% 30.31 in 10.0 mi WSW 6.9 mph - N/A   Clear
11:15 AM 68.0 °F 50.0 °F 52% 30.30 in 10.0 mi SW 8.1 mph - N/A   Clear
11:35 AM 69.8 °F 50.0 °F 49% 30.29 in 10.0 mi WSW 10.4 mph - N/A   Clear
11:55 AM 71.6 °F 48.2 °F 43% 30.27 in 10.0 mi SW 8.1 mph - N/A   Clear
12:15 PM 71.6 °F 46.4 °F 41% 30.26 in 10.0 mi SW 10.4 mph 19.6 mph N/A   Clear
12:35 PM 71.6 °F 46.4 °F 41% 30.25 in 10.0 mi SW 10.4 mph - N/A   Clear
12:55 PM 71.6 °F 44.6 °F 38% 30.25 in 10.0 mi West 11.5 mph 18.4 mph N/A   Clear
1:15 PM 71.6 °F 46.4 °F 41% 30.24 in 10.0 mi South 10.4 mph - N/A   Clear
1:35 PM 71.6 °F 46.4 °F 41% 30.22 in 10.0 mi WSW 8.1 mph - N/A   Clear
1:55 PM 71.6 °F 44.6 °F 38% 30.21 in 10.0 mi SW 9.2 mph 16.1 mph N/A   Clear
2:15 PM 71.6 °F 44.6 °F 38% 30.21 in 10.0 mi SW 10.4 mph 16.1 mph N/A   Clear
2:35 PM 71.6 °F 42.8 °F 35% 30.20 in 10.0 mi SW 11.5 mph 17.3 mph N/A   Clear
2:55 PM 71.6 °F 44.6 °F 38% 30.20 in 10.0 mi SW 12.7 mph - N/A   Clear
3:15 PM 71.6 °F 44.6 °F 38% 30.20 in 10.0 mi SW 9.2 mph - N/A   Mostly Cloudy
3:35 PM 69.8 °F 44.6 °F 40% 30.20 in 10.0 mi SW 8.1 mph 16.1 mph N/A   Overcast
3:55 PM 69.8 °F 46.4 °F 43% 30.20 in 10.0 mi SSW 9.2 mph 18.4 mph N/A   Overcast
4:15 PM 69.8 °F 46.4 °F 43% 30.20 in 10.0 mi SW 5.8 mph - N/A   Mostly Cloudy
4:35 PM 68.0 °F 46.4 °F 46% 30.20 in 10.0 mi SW 6.9 mph - N/A   Scattered Clouds
4:55 PM 68.0 °F 46.4 °F 46% 30.20 in 10.0 mi SW 5.8 mph - N/A   Clear
5:15 PM 66.2 °F 46.4 °F 49% 30.20 in 10.0 mi WSW 3.5 mph - N/A   Scattered Clouds
5:35 PM 66.2 °F 46.4 °F 49% 30.20 in 10.0 mi WSW 3.5 mph - N/A   Mostly Cloudy
5:55 PM 64.4 °F 46.4 °F 52% 30.21 in 10.0 mi Calm Calm - N/A   Overcast
6:15 PM 62.6 °F 46.4 °F 55% 30.21 in 10.0 mi WSW 3.5 mph - N/A   Mostly Cloudy
6:35 PM 62.6 °F 46.4 °F 55% 30.21 in 10.0 mi Calm Calm - N/A   Scattered Clouds
6:55 PM 60.8 °F 46.4 °F 59% 30.21 in 10.0 mi SW 3.5 mph - N/A   Clear
7:15 PM 62.6 °F 46.4 °F 55% 30.21 in 10.0 mi WSW 3.5 mph - N/A   Clear
7:35 PM 62.6 °F 46.4 °F 55% 30.21 in 10.0 mi Calm Calm - N/A   Clear
7:55 PM 60.8 °F 46.4 °F 59% 30.21 in 10.0 mi Calm Calm - N/A   Clear
8:15 PM 60.8 °F 46.4 °F 59% 30.21 in 10.0 mi SW 3.5 mph - N/A   Clear
8:35 PM 60.8 °F 48.2 °F 63% 30.21 in 10.0 mi WSW 3.5 mph - N/A   Clear
8:55 PM 60.8 °F 48.2 °F 63% 30.21 in 10.0 mi WSW 3.5 mph - N/A   Clear
9:15 PM 59.0 °F 48.2 °F 67% 30.21 in 10.0 mi SW 3.5 mph - N/A   Clear
9:35 PM 59.0 °F 46.4 °F 63% 30.21 in 10.0 mi Calm Calm - N/A   Clear
9:55 PM 59.0 °F 48.2 °F 67% 30.21 in 10.0 mi SW 4.6 mph - N/A   Clear
10:15 PM 57.2 °F 50.0 °F 77% 30.21 in 10.0 mi SW 4.6 mph - N/A   Clear
10:35 PM 59.0 °F 50.0 °F 72% 30.20 in 10.0 mi SSW 5.8 mph - N/A   Clear
10:55 PM 59.0 °F 50.0 °F 72% 30.20 in 10.0 mi Calm Calm - N/A   Clear
11:15 PM 59.0 °F 50.0 °F 72% 30.19 in 10.0 mi Calm Calm - N/A   Mostly Cloudy
11:35 PM 57.2 °F 50.0 °F 77% 30.18 in 10.0 mi Calm Calm - N/A   Overcast
11:55 PM 55.4 °F 50.0 °F 82% 30.18 in 10.0 mi Calm Calm - N/A   Overcast